Stations météo

Publicité
Logan Botanic Garden, Grande-Bretagne (99193): Température de l'air & dewpoint: 14.09.2019 04:00:00 - 20.09.2019 04:00:00 (BST)Logan Botanic Garden, Grande-Bretagne (99193): Température de l'air -20cm: 14.09.2019 04:00:00 - 20.09.2019 04:00:00 (BST)Logan Botanic Garden, Grande-Bretagne (99193): Quantités de précipitations: 14.09.2019 04:00:00 - 20.09.2019 04:00:00 (BST)
Date & Time tt [°C] td [°C] tt -20cm [°C] rr [mm]
20.09.2019 04:00:00 11,0 11,0 - 0,0
20.09.2019 03:00:00 9,4 9,3 - 0,0
20.09.2019 02:00:00 10,3 10,3 - 0,0
20.09.2019 01:00:00 10,1 10,0 - 0,0
20.09.2019 00:00:00 10,5 10,3 - 0,0
19.09.2019 23:00:00 9,3 8,7 - 0,0
19.09.2019 22:00:00 10,0 9,1 - 0,0
19.09.2019 21:00:00 10,9 9,5 - 0,0
19.09.2019 20:00:00 12,8 9,8 - 0,0
19.09.2019 19:00:00 14,1 11,1 - 0,0
19.09.2019 18:00:00 14,8 12,4 - 0,0
19.09.2019 17:00:00 15,5 12,5 - 0,0
19.09.2019 16:00:00 15,5 12,7 - 0,0
19.09.2019 15:00:00 15,9 13,0 - 0,0
19.09.2019 14:00:00 16,3 14,2 - 0,0
19.09.2019 13:00:00 15,5 13,3 - 0,0
19.09.2019 12:00:00 15,6 13,6 - 0,0
19.09.2019 11:00:00 15,2 12,4 - 0,0
19.09.2019 10:00:00 14,4 13,3 14,5 0,0
19.09.2019 09:00:00 12,6 12,6 - 0,0
19.09.2019 08:00:00 10,2 10,2 - 0,0
19.09.2019 07:00:00 9,8 9,8 - 0,0
19.09.2019 06:00:00 9,0 9,0 - 0,2
19.09.2019 05:00:00 9,2 9,2 - 0,0
19.09.2019 04:00:00 8,5 8,4 - 0,0
19.09.2019 03:00:00 8,9 8,8 - 0,0
19.09.2019 02:00:00 9,4 9,2 - 0,0
19.09.2019 01:00:00 10,2 10,0 - 0,0
19.09.2019 00:00:00 10,7 10,5 - 0,0
18.09.2019 23:00:00 10,2 9,9 - 0,0
18.09.2019 22:00:00 10,5 10,0 - 0,0
18.09.2019 21:00:00 10,4 9,3 - 0,0
18.09.2019 20:00:00 11,6 9,9 - 0,0
18.09.2019 19:00:00 13,0 10,9 - 0,0
18.09.2019 18:00:00 14,6 10,4 - 0,0
18.09.2019 17:00:00 15,4 9,9 - 0,0
18.09.2019 16:00:00 15,4 9,8 - 0,0
18.09.2019 15:00:00 15,2 9,9 - 0,0
18.09.2019 14:00:00 15,0 10,7 - 0,0
18.09.2019 13:00:00 14,7 10,6 - 0,0
18.09.2019 12:00:00 13,9 10,8 - 0,0
18.09.2019 11:00:00 13,7 10,5 - 0,0
18.09.2019 10:00:00 13,5 10,9 14,7 0,0
18.09.2019 09:00:00 12,9 10,3 - 0,0
18.09.2019 08:00:00 11,8 9,8 - 0,0
18.09.2019 07:00:00 11,3 10,2 - 0,0
18.09.2019 06:00:00 11,3 10,5 - 0,0
18.09.2019 05:00:00 9,8 9,2 - 0,0
18.09.2019 04:00:00 10,0 9,0 - 0,0
18.09.2019 03:00:00 10,0 9,0 - 0,0
18.09.2019 02:00:00 9,0 8,1 - 0,0
18.09.2019 01:00:00 8,6 7,8 - 0,0
18.09.2019 00:00:00 8,4 7,3 - 0,0
17.09.2019 23:00:00 9,3 7,3 - 0,0
17.09.2019 22:00:00 10,5 7,1 - 0,0
17.09.2019 21:00:00 11,1 8,3 - 0,0
17.09.2019 20:00:00 11,4 8,4 - 0,0
17.09.2019 19:00:00 12,8 8,4 - 0,0
17.09.2019 18:00:00 13,6 8,2 - 0,0
17.09.2019 17:00:00 14,0 8,1 - 0,0
17.09.2019 16:00:00 14,4 7,7 - 0,0
17.09.2019 15:00:00 14,3 7,4 - 0,0
17.09.2019 14:00:00 14,6 7,3 - 0,0
17.09.2019 13:00:00 14,0 7,2 - 0,0
17.09.2019 12:00:00 14,4 7,9 - 0,0
17.09.2019 11:00:00 14,0 7,9 - 0,0
17.09.2019 10:00:00 13,3 7,7 14,7 0,0
17.09.2019 09:00:00 12,4 8,9 - 0,0
17.09.2019 08:00:00 11,3 8,5 - 0,0
17.09.2019 07:00:00 11,7 8,0 - 0,0
17.09.2019 06:00:00 11,3 7,5 - 0,0
17.09.2019 05:00:00 12,3 8,4 - 0,0
17.09.2019 04:00:00 12,7 9,0 - 0,0
17.09.2019 03:00:00 12,4 8,5 - 0,0
17.09.2019 02:00:00 11,8 7,7 - 0,0
17.09.2019 01:00:00 12,7 8,6 - 0,0
17.09.2019 00:00:00 12,9 8,4 - 0,0
16.09.2019 23:00:00 12,8 8,0 - 0,0
16.09.2019 22:00:00 12,9 7,9 - 0,0
16.09.2019 21:00:00 12,8 7,5 - 0,0
16.09.2019 20:00:00 12,6 7,8 - 0,0
16.09.2019 19:00:00 12,9 8,8 - 0,0
16.09.2019 18:00:00 13,6 7,6 - 0,0
16.09.2019 17:00:00 14,6 7,5 - 0,0
16.09.2019 16:00:00 13,9 9,0 - 0,0
16.09.2019 15:00:00 14,8 8,5 - 0,0
16.09.2019 14:00:00 14,9 9,7 - 0,0
16.09.2019 13:00:00 14,5 9,3 - 0,0
16.09.2019 12:00:00 13,3 9,7 - 0,0
16.09.2019 11:00:00 12,2 9,8 - 0,0
16.09.2019 10:00:00 12,3 10,2 14,9 0,0
16.09.2019 09:00:00 11,6 10,3 - 0,0
16.09.2019 08:00:00 11,2 10,5 - 0,0
16.09.2019 07:00:00 11,0 9,9 - 0,0
16.09.2019 06:00:00 11,3 10,2 - 0,0
16.09.2019 05:00:00 11,5 9,7 - 0,0
16.09.2019 04:00:00 11,3 10,0 - 0,0
16.09.2019 03:00:00 11,5 9,8 - 0,0
16.09.2019 02:00:00 11,4 9,6 - 0,0
16.09.2019 01:00:00 11,5 9,6 - 0,0
16.09.2019 00:00:00 11,7 9,3 - 0,0
15.09.2019 23:00:00 11,8 9,3 - 0,0
15.09.2019 22:00:00 11,6 9,2 - 0,0
15.09.2019 21:00:00 11,7 9,3 - 0,0
15.09.2019 20:00:00 11,9 9,2 - 0,0
15.09.2019 19:00:00 12,8 9,0 - 0,0
15.09.2019 18:00:00 13,1 9,0 - 0,0
15.09.2019 17:00:00 13,5 8,1 - 0,0
15.09.2019 16:00:00 12,2 8,3 - 0,0
15.09.2019 15:00:00 13,5 9,3 - 0,0
15.09.2019 14:00:00 13,5 8,0 - 0,0
15.09.2019 13:00:00 13,8 8,7 - 0,0
15.09.2019 12:00:00 13,9 9,4 - 0,0
15.09.2019 11:00:00 14,0 8,8 - 0,0
15.09.2019 10:00:00 13,6 9,9 14,9 0,0
15.09.2019 09:00:00 13,2 10,8 - 0,0
15.09.2019 08:00:00 13,0 10,6 - 0,0
15.09.2019 07:00:00 13,2 10,5 - 0,0
15.09.2019 06:00:00 13,0 10,4 - 0,0
15.09.2019 05:00:00 13,2 11,1 - 0,0
15.09.2019 04:00:00 13,4 11,1 - 0,0
15.09.2019 03:00:00 13,1 11,4 - 0,0
15.09.2019 02:00:00 12,6 11,7 - 0,8
15.09.2019 01:00:00 13,5 12,4 - 0,0
15.09.2019 00:00:00 15,4 13,6 - 0,0
14.09.2019 23:00:00 15,5 13,4 - 0,0
14.09.2019 22:00:00 15,4 12,7 - 0,0
14.09.2019 21:00:00 15,8 12,1 - 0,0
14.09.2019 20:00:00 15,7 11,8 - 0,0
14.09.2019 19:00:00 15,1 12,5 - 0,0
14.09.2019 18:00:00 15,3 11,2 - 0,0
14.09.2019 17:00:00 15,1 10,7 - 0,0
14.09.2019 16:00:00 14,9 10,5 - 0,0
14.09.2019 15:00:00 15,0 9,8 - 0,0
14.09.2019 14:00:00 15,3 10,2 - 0,0
14.09.2019 13:00:00 15,1 10,0 - 0,0
14.09.2019 12:00:00 15,4 10,6 - 0,0
14.09.2019 11:00:00 14,5 10,3 - 0,0
14.09.2019 10:00:00 14,0 10,1 14,9 0,0
14.09.2019 09:00:00 13,9 10,4 - 0,0
14.09.2019 08:00:00 13,7 10,9 - 0,0
14.09.2019 07:00:00 13,7 10,3 - 0,0
14.09.2019 06:00:00 13,5 10,2 - 0,0
14.09.2019 05:00:00 13,3 10,2 - 0,0
14.09.2019 04:00:00 13,2 10,3 - 0,0

tt = Température de l'air
td = dewpoint
tt -20cm = Température de l'air -20cm
rr = Quantités de précipitations

stations d'obs. à proximité